,,,PA_Meas_PMT16A,,PR_Meas_QMR101_102,,RH_Meas_QMH101,,SR_Meas_QMS101,,TA_Meas_QMH101,,GenWind,,GenWind,
date,time,status,PA,status,PR,status,RH,status,SR,status,TA,status,DirAvg,status,SpdAvg,
2009-03-25, 00:00:04,VALID,1005.66,VALID,0,VALID,81.3162,VALID,0,VALID,25.2416,VALID,302,VALID,1.10117,
2009-03-25, 00:01:04,VALID,1005.61,VALID,0,VALID,81.5909,VALID,0,VALID,25.2592,VALID,285,VALID,0.392969,
2009-03-25, 00:02:04,VALID,1005.62,VALID,0,VALID,81.4917,VALID,0,VALID,25.2806,VALID,321,VALID,0.307031,
2009-03-25, 00:03:04,VALID,1005.59,VALID,0,VALID,81.6595,VALID,0,VALID,25.2806,VALID,302,VALID,0.296094,
2009-03-25, 00:04:04,VALID,1005.54,VALID,0,VALID,81.6214,VALID,0,VALID,25.2611,VALID,302,VALID,0.221484,
2009-03-25, 00:05:04,VALID,1005.52,VALID,0,VALID,81.9494,VALID,0,VALID,25.2221,VALID,297,VALID,0.0308594,
2009-03-25, 00:06:04,VALID,1005.55,VALID,0,VALID,81.8197,VALID,0,VALID,25.1813,VALID,297,VALID,0.0703125,
2009-03-25, 00:07:04,VALID,1005.53,VALID,0,VALID,81.8655,VALID,0,VALID,25.1813,VALID,328,VALID,0.274219,
2009-03-25, 00:08:04,VALID,1005.52,VALID,0,VALID,81.8884,VALID,0,VALID,25.1618,VALID,351,VALID,0.616016,
2009-03-25, 00:09:04,VALID,1005.48,VALID,0,VALID,82.2317,VALID,0,VALID,25.1423,VALID,351,VALID,0.0558594,
2009-03-25, 00:10:04,VALID,1005.5,VALID,0,VALID,82.163,VALID,0,VALID,25.1229,VALID,351,VALID,0.251953,
2009-03-25, 00:11:04,VALID,1005.48,VALID,0,VALID,81.9876,VALID,0,VALID,25.1034,VALID,336,VALID,0.783203,
2009-03-25, 00:12:04,VALID,1005.49,VALID,0,VALID,82.0944,VALID,0,VALID,25.1248,VALID,341,VALID,0.138672,
2009-03-25, 00:13:04,VALID,1005.46,VALID,0,VALID,82.2241,VALID,0,VALID,25.0839,VALID,350,VALID,0.167578,
2009-03-25, 00:14:04,VALID,1005.48,VALID,0,VALID,82.1402,VALID,0,VALID,25.1053,VALID,320,VALID,0.155078,
2009-03-25, 00:15:04,VALID,1005.45,VALID,0,VALID,82.2317,VALID,0,VALID,25.0839,VALID,320,VALID,0.00429688,
2009-03-25, 00:16:04,VALID,1005.48,VALID,0,VALID,82.4148,VALID,0,VALID,25.0839,VALID,263,VALID,0.396484,
2009-03-25, 00:17:04,VALID,1005.51,VALID,0,VALID,82.1859,VALID,0,VALID,25.0839,VALID,294,VALID,0.860937,
2009-03-25, 00:18:04,VALID,1005.52,VALID,0,VALID,82.0333,VALID,0,VALID,25.1053,VALID,293,VALID,1.02383,
2009-03-25, 00:19:04,VALID,1005.49,VALID,0,VALID,81.629,VALID,0,VALID,25.0858,VALID,290,VALID,1.42305,
2009-03-25, 00:20:04,VALID,1005.48,VALID,0,VALID,81.896,VALID,0,VALID,25.1053,VALID,303,VALID,0.535547,
2009-03-25, 00:21:04,VALID,1005.42,VALID,0,VALID,82.041,VALID,0,VALID,25.0839,VALID,253,VALID,0.573828,
2009-03-25, 00:22:04,VALID,1005.4,VALID,0,VALID,82.2546,VALID,0,VALID,25.1053,VALID,282,VALID,0.138672,
2009-03-25, 00:23:04,VALID,1005.42,VALID,0,VALID,81.9494,VALID,0,VALID,25.0644,VALID,282,VALID,0.1625,
2009-03-25, 00:24:04,VALID,1005.4,VALID,0,VALID,82.041,VALID,0,VALID,25.0663,VALID,277,VALID,1.06836,
2009-03-25, 00:25:04,VALID,1005.38,VALID,0,VALID,82.102,VALID,0,VALID,25.0663,VALID,295,VALID,0.437891,
2009-03-25, 00:26:04,VALID,1005.33,VALID,0,VALID,81.9265,VALID,0,VALID,25.045,VALID,301,VALID,0.407813,
2009-03-25, 00:27:04,VALID,1005.3,VALID,0,VALID,81.9494,VALID,0,VALID,25.045,VALID,277,VALID,0.454297,
2009-03-25, 00:28:04,VALID,1005.25,VALID,0,VALID,81.9571,VALID,0,VALID,25.045,VALID,294,VALID,0.744141,
2009-03-25, 00:29:04,VALID,1005.23,VALID,0,VALID,81.7358,VALID,0,VALID,25.0644,VALID,297,VALID,0.935938,
2009-03-25, 00:30:04,VALID,1005.24,VALID,0,VALID,81.6367,VALID,0,VALID,25.0644,VALID,298,VALID,0.901953,
2009-03-25, 00:31:04,VALID,1005.23,VALID,0,VALID,81.5451,VALID,0,VALID,25.1053,VALID,292,VALID,0.687109,
2009-03-25, 00:32:04,VALID,1005.25,VALID,0,VALID,81.629,VALID,0,VALID,25.1034,VALID,287,VALID,0.424219,
2009-03-25, 00:33:04,VALID,1005.22,VALID,0,VALID,81.6977,VALID,0,VALID,25.1248,VALID,292,VALID,0.473047,
2009-03-25, 00:34:04,VALID,1005.22,VALID,0,VALID,82.2851,VALID,0,VALID,25.1248,VALID,290,VALID,0.28125,
2009-03-25, 00:35:04,VALID,1005.22,VALID,0,VALID,82.1478,VALID,0,VALID,25.0839,VALID,258,VALID,0.275391,
2009-03-25, 00:36:04,VALID,1005.17,VALID,0,VALID,81.896,VALID,0,VALID,25.0644,VALID,284,VALID,0.740625,
2009-03-25, 00:37:04,VALID,1005.16,VALID,0,VALID,82.041,VALID,0,VALID,25.045,VALID,277,VALID,0.763281,
2009-03-25, 00:38:04,VALID,1005.13,VALID,0,VALID,82.4072,VALID,0,VALID,25.0469,VALID,280,VALID,0.313672,
2009-03-25, 00:39:04,VALID,1005.1,VALID,0,VALID,82.1783,VALID,0,VALID,25.0255,VALID,217,VALID,0.262109,
2009-03-25, 00:40:04,VALID,1005.11,VALID,0,VALID,82.2393,VALID,0,VALID,25.006,VALID,263,VALID,0.366797,
2009-03-25, 00:41:04,VALID,1005.07,VALID,0,VALID,82.4377,VALID,0,VALID,25.006,VALID,306,VALID,0.408203,
2009-03-25, 00:42:04,VALID,1005.09,VALID,0,VALID,82.4987,VALID,0,VALID,25.0079,VALID,330,VALID,0.327344,
2009-03-25, 00:43:04,VALID,1005.03,VALID,0,VALID,82.5826,VALID,0,VALID,24.9671,VALID,343,VALID,0.261328,
2009-03-25, 00:44:04,VALID,1005.01,VALID,0,VALID,82.575,VALID,0,VALID,24.9671,VALID,346,VALID,0.287109,
2009-03-25, 00:45:04,VALID,1004.98,VALID,0,VALID,82.7428,VALID,0,VALID,24.9476,VALID,258,VALID,0.187891,
2009-03-25, 00:46:04,VALID,1004.95,VALID,0,VALID,82.842,VALID,0,VALID,24.9476,VALID,326,VALID,0.364062,
2009-03-25, 00:47:04,VALID,1004.94,VALID,0,VALID,82.7505,VALID,0,VALID,24.9495,VALID,313,VALID,0.207813,
2009-03-25, 00:48:04,VALID,1004.92,VALID,0,VALID,82.7734,VALID,0,VALID,24.9087,VALID,318,VALID,0.421875,
2009-03-25, 00:49:04,VALID,1004.9,VALID,0,VALID,82.8878,VALID,0,VALID,24.9087,VALID,341,VALID,0.687109,
2009-03-25, 00:50:04,VALID,1004.95,VALID,0,VALID,83.0327,VALID,0,VALID,24.8892,VALID,343,VALID,0.45,
2009-03-25, 00:51:04,VALID,1004.97,VALID,0,VALID,82.8268,VALID,0,VALID,24.8697,VALID,347,VALID,1.19727,
2009-03-25, 00:52:04,VALID,1004.97,VALID,0,VALID,83.0556,VALID,0,VALID,24.8697,VALID,322,VALID,0.271484,
2009-03-25, 00:53:04,VALID,1004.98,VALID,0,VALID,82.9259,VALID,0,VALID,24.8716,VALID,351,VALID,0.838672,
2009-03-25, 00:54:04,VALID,1004.96,VALID,0,VALID,83.0709,VALID,0,VALID,24.8308,VALID,357,VALID,0.738672,
2009-03-25, 00:55:04,VALID,1004.99,VALID,0,VALID,83.0098,VALID,0,VALID,24.8113,VALID,340,VALID,0.827734,
2009-03-25, 00:56:04,VALID,1004.94,VALID,0,VALID,83.2921,VALID,0,VALID,24.8327,VALID,21,VALID,0.603516,
2009-03-25, 00:57:04,VALID,1004.92,VALID,0,VALID,83.2769,VALID,0,VALID,24.7919,VALID,350,VALID,0.938281,
2009-03-25, 00:58:04,VALID,1004.89,VALID,0,VALID,83.1701,VALID,0,VALID,24.7937,VALID,338,VALID,0.715234,
2009-03-25, 00:59:04,VALID,1004.87,VALID,0,VALID,83.2006,VALID,0,VALID,24.7724,VALID,345,VALID,0.618359,
2009-03-25, 01:00:04,VALID,1004.86,VALID,0,VALID,83.5973,VALID,0,VALID,24.7529,VALID,344,VALID,0.221094,
2009-03-25, 01:01:04,VALID,1004.88,VALID,0,VALID,83.4218,VALID,0,VALID,24.7335,VALID,323,VALID,0.456641,
2009-03-25, 01:02:04,VALID,1004.87,VALID,0,VALID,83.5668,VALID,0,VALID,24.7335,VALID,326,VALID,0.571484,
2009-03-25, 01:03:04,VALID,1004.86,VALID,0,VALID,83.5134,VALID,0,VALID,24.7335,VALID,294,VALID,0.597656,
2009-03-25, 01:04:04,VALID,1004.83,VALID,0,VALID,83.5439,VALID,0,VALID,24.714,VALID,285,VALID,0.582422,
2009-03-25, 01:05:04,VALID,1004.78,VALID,0,VALID,83.5439,VALID,0,VALID,24.714,VALID,283,VALID,0.260547,
2009-03-25, 01:06:04,VALID,1004.78,VALID,0,VALID,83.8185,VALID,0,VALID,24.6945,VALID,349,VALID,0.588281,
2009-03-25, 01:07:04,VALID,1004.79,VALID,0,VALID,83.7804,VALID,0,VALID,24.6945,VALID,286,VALID,0.208984,
2009-03-25, 01:08:04,VALID,1004.8,VALID,0,VALID,83.9024,VALID,0,VALID,24.675,VALID,306,VALID,0.506641,
2009-03-25, 01:09:04,VALID,1004.79,VALID,0,VALID,83.9406,VALID,0,VALID,24.675,VALID,338,VALID,0.696484,
2009-03-25, 01:10:04,VALID,1004.77,VALID,0,VALID,84.0703,VALID,0,VALID,24.675,VALID,342,VALID,0.348437,
2009-03-25, 01:11:04,VALID,1004.77,VALID,0,VALID,84.2076,VALID,0,VALID,24.6342,VALID,13,VALID,0.338672,
2009-03-25, 01:12:04,VALID,1004.75,VALID,0,VALID,84.322,VALID,0,VALID,24.6361,VALID,335,VALID,0.742188,
2009-03-25, 01:13:04,VALID,1004.73,VALID,0,VALID,84.5814,VALID,0,VALID,24.6166,VALID,282,VALID,0.321484,
2009-03-25, 01:14:04,VALID,1004.75,VALID,0,VALID,84.4517,VALID,0,VALID,24.6166,VALID,295,VALID,0.749609,
2009-03-25, 01:15:04,VALID,1004.72,VALID,0,VALID,84.5051,VALID,0,VALID,24.6185,VALID,347,VALID,0.754687,
2009-03-25, 01:16:04,VALID,1004.7,VALID,0,VALID,84.3983,VALID,0,VALID,24.5777,VALID,288,VALID,1.39961,
2009-03-25, 01:17:04,VALID,1004.67,VALID,0,VALID,84.4593,VALID,0,VALID,24.5777,VALID,355,VALID,0.451953,
2009-03-25, 01:18:04,VALID,1004.66,VALID,0,VALID,84.5814,VALID,0,VALID,24.5777,VALID,288,VALID,0.346094,
2009-03-25, 01:19:04,VALID,1004.66,VALID,0,VALID,84.6424,VALID,0,VALID,24.5564,VALID,351,VALID,0.954687,
2009-03-25, 01:20:04,VALID,1004.64,VALID,0,VALID,84.6958,VALID,0,VALID,24.5777,VALID,325,VALID,0.887891,
2009-03-25, 01:21:04,VALID,1004.63,VALID,0,VALID,84.6958,VALID,0,VALID,24.5582,VALID,292,VALID,0.911328,
2009-03-25, 01:22:04,VALID,1004.67,VALID,0,VALID,84.9628,VALID,0,VALID,24.599,VALID,350,VALID,0.726172,
2009-03-25, 01:23:04,VALID,1004.68,VALID,0,VALID,84.9934,VALID,0,VALID,24.5777,VALID,333,VALID,0.539063,
2009-03-25, 01:24:04,VALID,1004.67,VALID,0,VALID,85.0696,VALID,0,VALID,24.5582,VALID,327,VALID,0.542969,
2009-03-25, 01:25:04,VALID,1004.64,VALID,0,VALID,84.8484,VALID,0,VALID,24.5777,VALID,359,VALID,1.29648,
2009-03-25, 01:26:04,VALID,1004.64,VALID,0,VALID,85.0239,VALID,0,VALID,24.5777,VALID,318,VALID,0.746875,
2009-03-25, 01:27:04,VALID,1004.62,VALID,0,VALID,84.9628,VALID,0,VALID,24.5972,VALID,211,VALID,0.585547,
2009-03-25, 01:28:04,VALID,1004.64,VALID,0,VALID,84.7874,VALID,0,VALID,24.5972,VALID,310,VALID,1.09687,
2009-03-25, 01:29:04,VALID,1004.62,VALID,0,VALID,84.734,VALID,0,VALID,24.638,VALID,298,VALID,1.45039,
2009-03-25, 01:30:04,VALID,1004.59,VALID,0,VALID,84.6424,VALID,0,VALID,24.6361,VALID,292,VALID,1.17383,
2009-03-25, 01:31:04,VALID,1004.55,VALID,0,VALID,84.5967,VALID,0,VALID,24.6148,VALID,278,VALID,1.29102,
2009-03-25, 01:32:04,VALID,1004.55,VALID,0,VALID,84.4899,VALID,0,VALID,24.6574,VALID,291,VALID,1.22031,
2009-03-25, 01:33:04,VALID,1004.55,VALID,0,VALID,84.4517,VALID,0,VALID,24.6556,VALID,290,VALID,1.36875,
2009-03-25, 01:34:04,VALID,1004.51,VALID,0,VALID,84.5127,VALID,0,VALID,24.6964,VALID,301,VALID,1.01797,
2009-03-25, 01:35:04,VALID,1004.48,VALID,0,VALID,84.6272,VALID,0,VALID,24.6964,VALID,316,VALID,0.815625,
2009-03-25, 01:36:04,VALID,1004.44,VALID,0,VALID,84.4975,VALID,0,VALID,24.6945,VALID,290,VALID,1.74063,
2009-03-25, 01:37:04,VALID,1004.44,VALID,0,VALID,84.5814,VALID,0,VALID,24.6945,VALID,238,VALID,0.772266,
2009-03-25, 01:38:04,VALID,1004.42,VALID,0,VALID,84.3983,VALID,0,VALID,24.714,VALID,303,VALID,1.93789,
2009-03-25, 01:39:04,VALID,1004.42,VALID,0,VALID,84.4136,VALID,0,VALID,24.7335,VALID,316,VALID,1.25312,
2009-03-25, 01:40:04,VALID,1004.4,VALID,0,VALID,84.5051,VALID,0,VALID,24.7548,VALID,281,VALID,1.19453,
2009-03-25, 01:41:04,VALID,1004.34,VALID,0,VALID,84.4059,VALID,0,VALID,24.7335,VALID,280,VALID,0.9375,
2009-03-25, 01:42:04,VALID,1004.36,VALID,0,VALID,84.4822,VALID,0,VALID,24.7529,VALID,281,VALID,1.00039,
2009-03-25, 01:43:04,VALID,1004.33,VALID,0,VALID,84.5433,VALID,0,VALID,24.7121,VALID,287,VALID,1.91289,
2009-03-25, 01:44:04,VALID,1004.3,VALID,0,VALID,84.795,VALID,0.100563,VALID,24.7335,VALID,284,VALID,0.948438,
2009-03-25, 01:45:04,VALID,1004.27,VALID,0,VALID,84.8637,VALID,0.100563,VALID,24.714,VALID,319,VALID,0.667188,
2009-03-25, 01:46:04,VALID,1004.19,VALID,0,VALID,84.8484,VALID,0.100563,VALID,24.6926,VALID,310,VALID,0.560156,
2009-03-25, 01:47:04,VALID,1004.19,VALID,0,VALID,84.9934,VALID,0.100563,VALID,24.6732,VALID,298,VALID,0.920313,
2009-03-25, 01:48:04,VALID,1004.16,VALID,0,VALID,85.1078,VALID,0.100563,VALID,24.675,VALID,307,VALID,0.527344,
2009-03-25, 01:49:04,VALID,1004.15,VALID,0,VALID,85.1002,VALID,0,VALID,24.675,VALID,314,VALID,1.05,
2009-03-25, 01:50:04,VALID,1004.1,VALID,0,VALID,85.1536,VALID,0,VALID,24.6537,VALID,304,VALID,1.12188,
2009-03-25, 01:51:04,VALID,1004.11,VALID,0,VALID,85.2375,VALID,0.100563,VALID,24.6945,VALID,12,VALID,0.449609,
2009-03-25, 01:52:04,VALID,1004.09,VALID,0,VALID,85.2299,VALID,0,VALID,24.6945,VALID,292,VALID,1.33633,
2009-03-25, 01:53:04,VALID,1004.12,VALID,0,VALID,85.1841,VALID,0.100563,VALID,24.6945,VALID,346,VALID,0.899609,
2009-03-25, 01:54:04,VALID,1004.06,VALID,0,VALID,85.0925,VALID,0,VALID,24.6945,VALID,292,VALID,2.07344,
2009-03-25, 01:55:04,VALID,1004.03,VALID,0,VALID,85.1307,VALID,0,VALID,24.714,VALID,294,VALID,1.12656,
2009-03-25, 01:56:04,VALID,1003.98,VALID,0,VALID,85.1612,VALID,0,VALID,24.714,VALID,290,VALID,1.3,
2009-03-25, 01:57:04,VALID,1003.96,VALID,0,VALID,85.1917,VALID,0.100563,VALID,24.714,VALID,289,VALID,1.53867,
2009-03-25, 01:58:04,VALID,1003.95,VALID,0,VALID,85.1612,VALID,0.100563,VALID,24.714,VALID,291,VALID,2.4832,
2009-03-25, 01:59:04,VALID,1003.95,VALID,0,VALID,85.268,VALID,0.100563,VALID,24.714,VALID,299,VALID,1.43438,
2009-03-25, 02:00:04,VALID,1003.9,VALID,0,VALID,85.2909,VALID,0,VALID,24.714,VALID,280,VALID,1.32305,
2009-03-25, 02:01:04,VALID,1003.85,VALID,0,VALID,85.3214,VALID,0,VALID,24.714,VALID,296,VALID,1.50742,
2009-03-25, 02:02:04,VALID,1003.85,VALID,0,VALID,85.3443,VALID,0,VALID,24.6945,VALID,289,VALID,1.52656,
2009-03-25, 02:03:04,VALID,1003.8,VALID,0,VALID,85.3443,VALID,0.100563,VALID,24.6945,VALID,287,VALID,1.83633,
2009-03-25, 02:04:04,VALID,1003.77,VALID,0,VALID,85.2909,VALID,0,VALID,24.6945,VALID,316,VALID,1.3707,
2009-03-25, 02:05:04,VALID,1003.75,VALID,0,VALID,85.4435,VALID,0,VALID,24.6945,VALID,298,VALID,0.327734,
2009-03-25, 02:06:04,VALID,1003.74,VALID,0,VALID,85.5121,VALID,0,VALID,24.6964,VALID,286,VALID,0.547266,
2009-03-25, 02:07:04,VALID,1003.73,VALID,0,VALID,85.4816,VALID,0,VALID,24.6945,VALID,290,VALID,0.910937,
2009-03-25, 02:08:04,VALID,1003.71,VALID,0,VALID,85.3138,VALID,0,VALID,24.675,VALID,287,VALID,2.41758,
2009-03-25, 02:09:04,VALID,1003.72,VALID,0,VALID,85.3138,VALID,0,VALID,24.675,VALID,343,VALID,0.403516,
2009-03-25, 02:10:04,VALID,1003.66,VALID,0,VALID,85.2756,VALID,0.100563,VALID,24.675,VALID,291,VALID,0.928516,
2009-03-25, 02:11:04,VALID,1003.67,VALID,0,VALID,85.4129,VALID,0,VALID,24.675,VALID,294,VALID,1.09219,
2009-03-25, 02:12:04,VALID,1003.65,VALID,0,VALID,85.5045,VALID,0,VALID,24.6556,VALID,327,VALID,0.459375,
2009-03-25, 02:13:04,VALID,1003.64,VALID,0,VALID,85.4816,VALID,0,VALID,24.6361,VALID,290,VALID,0.74375,
2009-03-25, 02:14:04,VALID,1003.63,VALID,0,VALID,85.6876,VALID,0.100563,VALID,24.6556,VALID,289,VALID,0.345313,
2009-03-25, 02:15:04,VALID,1003.6,VALID,0,VALID,85.7639,VALID,0,VALID,24.6166,VALID,301,VALID,0.612891,
2009-03-25, 02:16:04,VALID,1003.6,VALID,0,VALID,85.9012,VALID,0,VALID,24.5972,VALID,342,VALID,0.285156,
2009-03-25, 02:17:04,VALID,1003.6,VALID,0,VALID,85.9088,VALID,0,VALID,24.599,VALID,284,VALID,0.721094,
2009-03-25, 02:18:04,VALID,1003.56,VALID,0,VALID,86.0385,VALID,0,VALID,24.5796,VALID,291,VALID,0.173047,
2009-03-25, 02:19:04,VALID,1003.53,VALID,0,VALID,86.0767,VALID,0,VALID,24.5582,VALID,276,VALID,0.757813,
2009-03-25, 02:20:04,VALID,1003.53,VALID,0,VALID,86.0309,VALID,0.100563,VALID,24.5388,VALID,285,VALID,0.530078,
2009-03-25, 02:21:04,VALID,1003.49,VALID,0,VALID,86.1606,VALID,0,VALID,24.5388,VALID,286,VALID,0.0457031,
2009-03-25, 02:22:04,VALID,1003.52,VALID,0,VALID,86.1682,VALID,0,VALID,24.5193,VALID,284,VALID,0.639063,
2009-03-25, 02:23:04,VALID,1003.47,VALID,0,VALID,86.2292,VALID,0.100563,VALID,24.5193,VALID,356,VALID,0.281641,
2009-03-25, 02:24:04,VALID,1003.46,VALID,0,VALID,86.3437,VALID,0.100563,VALID,24.4785,VALID,356,VALID,0.405078,
2009-03-25, 02:25:04,VALID,1003.42,VALID,0,VALID,86.481,VALID,0,VALID,24.4609,VALID,338,VALID,0.188281,
2009-03-25, 02:26:04,VALID,1003.44,VALID,0,VALID,86.5573,VALID,0,VALID,24.4609,VALID,339,VALID,0.292578,
2009-03-25, 02:27:04,VALID,1003.39,VALID,0,VALID,86.6946,VALID,0,VALID,24.4414,VALID,339,VALID,0.160156,
2009-03-25, 02:28:04,VALID,1003.41,VALID,0,VALID,86.809,VALID,0,VALID,24.422,VALID,345,VALID,0.4,
2009-03-25, 02:29:04,VALID,1003.38,VALID,0,VALID,86.954,VALID,0.100563,VALID,24.3812,VALID,345,VALID,0.0917969,
2009-03-25, 02:30:04,VALID,1003.37,VALID,0,VALID,87.0455,VALID,0,VALID,24.3422,VALID,345,VALID,0.162109,
2009-03-25, 02:31:04,VALID,1003.35,VALID,0,VALID,87.1371,VALID,0,VALID,24.3441,VALID,355,VALID,0.345313,
2009-03-25, 02:32:04,VALID,1003.33,VALID,0,VALID,87.16,VALID,0.100563,VALID,24.3441,VALID,355,VALID,0.537109,
2009-03-25, 02:33:04,VALID,1003.32,VALID,0,VALID,87.2896,VALID,0,VALID,24.3246,VALID,355,VALID,0.471484,
2009-03-25, 02:34:04,VALID,1003.33,VALID,0,VALID,87.2896,VALID,0,VALID,24.3052,VALID,355,VALID,0.938672,
2009-03-25, 02:35:04,VALID,1003.32,VALID,0,VALID,87.4422,VALID,0.100563,VALID,24.2644,VALID,347,VALID,0.491406,
2009-03-25, 02:36:04,VALID,1003.29,VALID,0,VALID,87.5719,VALID,0,VALID,24.2662,VALID,347,VALID,0.117578,
2009-03-25, 02:37:04,VALID,1003.28,VALID,0,VALID,87.7626,VALID,0,VALID,24.2486,VALID,339,VALID,0.215625,
2009-03-25, 02:38:04,VALID,1003.25,VALID,0,VALID,87.7855,VALID,0,VALID,24.2681,VALID,340,VALID,0,
2009-03-25, 02:39:04,VALID,1003.24,VALID,0,VALID,87.7321,VALID,0,VALID,24.2273,VALID,338,VALID,0,
2009-03-25, 02:40:04,VALID,1003.22,VALID,0,VALID,87.816,VALID,0,VALID,24.2291,VALID,337,VALID,0.338672,
2009-03-25, 02:41:04,VALID,1003.2,VALID,0,VALID,87.7321,VALID,0.100563,VALID,24.2078,VALID,352,VALID,0.591016,
2009-03-25, 02:42:04,VALID,1003.2,VALID,0,VALID,87.755,VALID,0.100563,VALID,24.2078,VALID,358,VALID,0.214844,
2009-03-25, 02:43:04,VALID,1003.19,VALID,0,VALID,87.7245,VALID,0,VALID,24.1884,VALID,358,VALID,0,
2009-03-25, 02:44:04,VALID,1003.17,VALID,0,VALID,87.7703,VALID,0.100563,VALID,24.1671,VALID,358,VALID,0.261719,
2009-03-25, 02:45:04,VALID,1003.17,VALID,0,VALID,87.7703,VALID,0,VALID,24.1884,VALID,358,VALID,0.628125,
2009-03-25, 02:46:04,VALID,1003.17,VALID,0,VALID,87.6787,VALID,0,VALID,24.1884,VALID,332,VALID,0.525391,
2009-03-25, 02:47:04,VALID,1003.17,VALID,0,VALID,87.6558,VALID,0,VALID,24.1476,VALID,357,VALID,0.638281,
2009-03-25, 02:48:04,VALID,1003.18,VALID,0,VALID,87.5795,VALID,0.100563,VALID,24.1884,VALID,350,VALID,0.459375,
2009-03-25, 02:49:04,VALID,1003.19,VALID,0,VALID,87.4727,VALID,0.100563,VALID,24.1884,VALID,345,VALID,0.783203,
2009-03-25, 02:50:04,VALID,1003.19,VALID,0,VALID,87.1447,VALID,0.100563,VALID,24.2078,VALID,349,VALID,1.01953,
2009-03-25, 02:51:04,VALID,1003.19,VALID,0,VALID,87.1905,VALID,0.100563,VALID,24.2273,VALID,360,VALID,0.185547,
2009-03-25, 02:52:04,VALID,1003.2,VALID,0,VALID,86.9845,VALID,0.100563,VALID,24.2468,VALID,311,VALID,0.849219,
2009-03-25, 02:53:04,VALID,1003.21,VALID,0,VALID,86.9082,VALID,0.100563,VALID,24.2255,VALID,315,VALID,0.3375,
2009-03-25, 02:54:04,VALID,1003.23,VALID,0,VALID,86.7327,VALID,0.100563,VALID,24.206,VALID,351,VALID,0.951172,
2009-03-25, 02:55:04,VALID,1003.25,VALID,0,VALID,86.6641,VALID,0.100563,VALID,24.2273,VALID,340,VALID,0.304688,
2009-03-25, 02:56:04,VALID,1003.22,VALID,0,VALID,86.687,VALID,0.100563,VALID,24.2468,VALID,326,VALID,0.248437,
2009-03-25, 02:57:04,VALID,1003.24,VALID,0,VALID,86.5649,VALID,0,VALID,24.2273,VALID,324,VALID,1.31211,
2009-03-25, 02:58:04,VALID,1003.3,VALID,0,VALID,86.4962,VALID,0.100563,VALID,24.2468,VALID,351,VALID,0.765234,
2009-03-25, 02:59:04,VALID,1003.25,VALID,0,VALID,86.5268,VALID,0.100563,VALID,24.2468,VALID,342,VALID,1.3957,
2009-03-25, 03:00:04,VALID,1003.23,VALID,0,VALID,86.6107,VALID,0.100563,VALID,24.2468,VALID,333,VALID,0.710938,
2009-03-25, 03:01:04,VALID,1003.21,VALID,0,VALID,86.5649,VALID,0.100563,VALID,24.2255,VALID,314,VALID,0.896484,
2009-03-25, 03:02:04,VALID,1003.2,VALID,0,VALID,86.6565,VALID,0.100563,VALID,24.2273,VALID,319,VALID,0.654688,
2009-03-25, 03:03:04,VALID,1003.2,VALID,0,VALID,86.6717,VALID,0.100563,VALID,24.2468,VALID,355,VALID,1.47227,
2009-03-25, 03:04:04,VALID,1003.21,VALID,0,VALID,86.7404,VALID,0.100563,VALID,24.2468,VALID,341,VALID,0.705469,
2009-03-25, 03:05:04,VALID,1003.21,VALID,0,VALID,86.8014,VALID,0.100563,VALID,24.2273,VALID,347,VALID,0.703516,
2009-03-25, 03:06:04,VALID,1003.24,VALID,0,VALID,86.8472,VALID,0.100563,VALID,24.206,VALID,344,VALID,1.07305,
2009-03-25, 03:07:04,VALID,1003.25,VALID,0,VALID,86.9769,VALID,0.100563,VALID,24.2078,VALID,14,VALID,0.449609,
2009-03-25, 03:08:04,VALID,1003.33,VALID,0,VALID,87.1142,VALID,0.100563,VALID,24.2078,VALID,337,VALID,0.435937,
2009-03-25, 03:09:04,VALID,1003.32,VALID,0,VALID,87.1905,VALID,0.100563,VALID,24.1884,VALID,336,VALID,0.241406,
2009-03-25, 03:10:04,VALID,1003.36,VALID,0,VALID,87.2134,VALID,0.100563,VALID,24.1689,VALID,347,VALID,0.529297,
2009-03-25, 03:11:04,VALID,1003.38,VALID,0,VALID,87.2515,VALID,0,VALID,24.1494,VALID,344,VALID,1.43672,
2009-03-25, 03:12:04,VALID,1003.39,VALID,0,VALID,87.4041,VALID,0,VALID,24.13,VALID,6,VALID,0.776172,
2009-03-25, 03:13:04,VALID,1003.4,VALID,0,VALID,87.3965,VALID,0,VALID,24.1105,VALID,329,VALID,1.26094,
2009-03-25, 03:14:04,VALID,1003.39,VALID,0,VALID,87.3354,VALID,0,VALID,24.1105,VALID,310,VALID,0.986719,
2009-03-25, 03:15:04,VALID,1003.36,VALID,0,VALID,87.2896,VALID,0,VALID,24.1318,VALID,317,VALID,1.24102,
2009-03-25, 03:16:04,VALID,1003.4,VALID,0,VALID,87.1828,VALID,0,VALID,24.1513,VALID,297,VALID,0.766797,
2009-03-25, 03:17:04,VALID,1003.38,VALID,0,VALID,87.1981,VALID,0,VALID,24.1513,VALID,243,VALID,0.398438,
2009-03-25, 03:18:04,VALID,1003.38,VALID,0,VALID,87.0608,VALID,0,VALID,24.1494,VALID,310,VALID,2.12656,
2009-03-25, 03:19:04,VALID,1003.45,VALID,0,VALID,86.9464,VALID,0,VALID,24.1689,VALID,255,VALID,0.820313,
2009-03-25, 03:20:04,VALID,1003.44,VALID,0,VALID,86.7861,VALID,0,VALID,24.2097,VALID,310,VALID,0.410156,
2009-03-25, 03:21:04,VALID,1003.45,VALID,0,VALID,86.7556,VALID,0,VALID,24.2097,VALID,344,VALID,0.583203,
2009-03-25, 03:22:04,VALID,1003.44,VALID,0,VALID,86.8319,VALID,0,VALID,24.2097,VALID,337,VALID,0.280469,
2009-03-25, 03:23:04,VALID,1003.48,VALID,0,VALID,86.7861,VALID,0,VALID,24.1689,VALID,358,VALID,1.0168,
2009-03-25, 03:24:04,VALID,1003.48,VALID,0,VALID,86.8014,VALID,0,VALID,24.1689,VALID,349,VALID,1.25977,
2009-03-25, 03:25:04,VALID,1003.52,VALID,0,VALID,86.7938,VALID,0,VALID,24.2097,VALID,358,VALID,1.52695,
2009-03-25, 03:26:04,VALID,1003.51,VALID,0,VALID,86.7785,VALID,0,VALID,24.1902,VALID,353,VALID,1.86133,
2009-03-25, 03:27:04,VALID,1003.56,VALID,0,VALID,86.748,VALID,0,VALID,24.1689,VALID,359,VALID,1.40313,
2009-03-25, 03:28:04,VALID,1003.56,VALID,0,VALID,86.7633,VALID,0,VALID,24.1902,VALID,322,VALID,0.932813,
2009-03-25, 03:29:04,VALID,1003.61,VALID,0,VALID,86.8624,VALID,0,VALID,24.2097,VALID,344,VALID,0.495703,
2009-03-25, 03:30:04,VALID,1003.62,VALID,0,VALID,86.9387,VALID,0,VALID,24.1707,VALID,356,VALID,0.703125,
2009-03-25, 03:31:04,VALID,1003.64,VALID,0,VALID,87.0226,VALID,0,VALID,24.1707,VALID,345,VALID,0.260938,
2009-03-25, 03:32:04,VALID,1003.66,VALID,0,VALID,86.9616,VALID,0,VALID,24.1318,VALID,340,VALID,0.661719,
2009-03-25, 03:33:04,VALID,1003.66,VALID,0,VALID,87.015,VALID,0,VALID,24.091,VALID,356,VALID,0.776172,
2009-03-25, 03:34:04,VALID,1003.66,VALID,0,VALID,87.0913,VALID,0,VALID,24.0716,VALID,273,VALID,0.770312,
2009-03-25, 03:35:04,VALID,1003.7,VALID,0,VALID,87.0684,VALID,0,VALID,24.0734,VALID,282,VALID,0.808594,
2009-03-25, 03:36:04,VALID,1003.76,VALID,0,VALID,87.1752,VALID,0,VALID,24.0521,VALID,275,VALID,0.224219,
2009-03-25, 03:37:04,VALID,1003.72,VALID,0,VALID,87.1676,VALID,0,VALID,24.0734,VALID,320,VALID,0.3625,
2009-03-25, 03:38:04,VALID,1003.73,VALID,0,VALID,87.16,VALID,0,VALID,24.0539,VALID,355,VALID,1.66719,
2009-03-25, 03:39:04,VALID,1003.71,VALID,0,VALID,87.1066,VALID,0,VALID,24.0132,VALID,7,VALID,1.32891,
2009-03-25, 03:40:04,VALID,1003.72,VALID,0,VALID,87.1294,VALID,0,VALID,24.015,VALID,360,VALID,1.29336,
2009-03-25, 03:41:04,VALID,1003.72,VALID,0,VALID,87.1523,VALID,0,VALID,23.9742,VALID,354,VALID,1.36055,
2009-03-25, 03:42:04,VALID,1003.7,VALID,0,VALID,87.2057,VALID,0.100563,VALID,23.9548,VALID,353,VALID,1.28164,